Cloud_Cover
56 6 1 0 0 0 5 30 25 22 28 100 91 100 100 100 100 100 69 75 93 100 51 100 100 100 100 100 100 100 100 100
100 9 0 0 0 0 0 20 27 17 1 53 100 94 100 100 97 99 85 89 74 87 100 100 100 100 100 100 100 100 100 100
97 4 0 0 0 0 0 26 40 9 34 91 100 70 49 57 92 89 92 64 94 52 87 100 100 100 100 100 100 100 100 100
11 2 0 0 2 0 0 54 99 7 78 100 100 41 70 95 100 74 99 55 71 70 100 100 100 100 100 100 100 100 100 100
2 0 0 5 0 0 4 100 40 31 98 100 86 92 63 76 72 58 46 100 100 100 100 100 100 100 100 100 100 100 100 100
0 0 0 5 0 0 99 100 89 100 100 100 31 5 86 64 91 64 100 98 100 92 100 100 100 100 100 100 100 100 100 100
1 0 0 0 0 27 100 93 100 100 100 35 6 13 53 67 100 88 100 100 100 100 100 100 100 100 100 100 100 100 100 100
2 1 5 0 39 96 100 100 100 100 100 16 5 10 97 23 72 74 100 100 100 100 100 100 100 100 100 100 100 100 100 100
6 4 2 1 94 100 100 100 100 100 87 6 4 8 100 100 100 89 100 100 100 100 100 100 100 100 100 100 100 100 100 100
0 4 0 98 97 100 100 100 100 100 61 16 8 52 100 100 71 36 100 100 100 97 98 100 100 100 100 100 100 100 100 100
9 12 35 100 93 100 100 100 100 100 65 38 36 89 98 81 80 94 100 100 100 99 100 100 100 100 100 100 100 100 100 100
95 93 100 94 100 100 100 100 100 100 95 67 100 100 100 84 84 81 100 100 100 100 100 100 100 100 100 100 100 100 100 100
100 100 100 100 100 100 100 100 100 100 100 98 100 100 100 88 100 100 77 100 100 100 100 100 100 100 100 100 100 100 100 100
100 100 100 100 100 100 100 100 100 100 100 100 100 100 97 20 78 56 84 100 100 100 100 100 100 100 100 100 100 100 100 100
100 100 100 100 100 100 100 100 100 100 100 100 100 100 100 99 100 100 100 100 100 100 100 100 100 100 100 100 100 100 100 100
100 100 100 100 100 100 100 100 100 100 100 100 100 100 100 99 85 70 100 100 100 100 100 100 100 100 100 100 100 100 100 100
100 100 100 100 100 100 100 100 100 100 100 100 100 100 100 100 100 100 100 100 100 100 100 100 100 100 100 100 79 98 100 95
100 100 100 100 100 100 100 100 100 100 100 100 100 100 100 100 100 100 100 100 100 100 100 100 100 100 100 100 100 100 100 100
100 100 100 100 100 100 100 100 100 100 100 100 100 100 100 100 100 100 100 100 100 100 100 100 100 100 100 100 100 100 100 100